Date String (YYYY-MM-DD hh:mm:ss) UTC,Instrument flags,absolute air pressure of the measurement (hPa),sample flow rate (lpm),inlet stack bypass flow (lpm),air temperature of the measurement (°C),ambient temperature measured by the external sensor (°C),aerosol sample conditioner tube jacket temperature (°C),OPC LED temperature (°C),internal box temperature (°C),relative humidity of the measurement (%),span deviation,mass concentration of particles derived from Lorenz-Mie calculation of OPC scattering (μg/m³),mass concentration of particles derived from Lorenz-Mie calculation of OPC scattering (μg/m³),mass concentration of particles derived from Lorenz-Mie calculation of OPC scattering (μg/m³)
DateTimeUTC,F1_M11,P_M11,Q1_M11,Q2_M11,T1_M11,T2_M11,T3_M11,T4_M11,T5_M11,U1_M11,ZSPAN_M11,X0_M11,X2_M11,X1_M11
2023-12-12 16:00:00,SystemResetWarning,0833.8,5.01,000.00,020.5,019.5,000.0,028.9,021.8,19.9,0000.0,0007.79,0005.07,0004.89
2023-12-12 16:01:00,SystemResetWarning,0833.8,5.00,000.00,020.5,019.6,000.0,028.9,021.8,19.8,0000.0,0007.91,0005.18,0004.99
2023-12-12 16:02:00,SystemResetWarning,0833.8,5.00,000.00,020.5,019.6,000.0,028.9,021.8,19.8,0000.0,0008.05,0005.26,0005.07
2023-12-12 16:03:00,SystemResetWarning,0833.8,5.00,000.00,020.5,019.6,000.0,028.9,021.8,19.8,0000.0,0008.21,0005.36,0005.15
2023-12-12 16:04:00,SystemResetWarning,0833.8,4.99,000.00,020.5,019.5,000.0,028.9,021.8,19.8,0000.0,0008.42,0005.48,0005.24
2023-12-12 16:05:00,SystemResetWarning,0833.8,5.00,000.00,020.5,019.5,000.0,028.8,021.8,19.8,0000.0,0008.52,0005.57,0005.32
2023-12-12 16:06:00,SystemResetWarning,0833.8,4.99,000.00,020.5,019.5,000.0,028.8,021.8,19.8,0000.0,0008.53,0005.63,0005.40
2023-12-12 16:07:00,SystemResetWarning,0833.8,5.01,000.00,020.5,019.5,000.0,028.8,021.8,19.7,0000.0,0008.56,0005.69,0005.47
2023-12-12 16:08:00,SystemResetWarning,0833.8,5.01,000.00,020.5,019.5,000.0,028.8,021.8,19.7,0000.0,0008.66,0005.78,0005.55
2023-12-12 16:09:00,SystemResetWarning,0833.8,5.00,000.00,020.5,019.5,000.0,028.8,021.8,19.7,0000.0,0008.91,0005.88,0005.62
2023-12-12 16:10:00,SystemResetWarning,0833.8,5.01,000.00,020.5,019.5,000.0,028.8,021.8,19.6,0000.0,0009.23,0005.95,0005.67
2023-12-12 16:11:00,SystemResetWarning,0833.9,4.99,000.00,020.5,019.5,000.0,028.8,021.8,19.6,0000.0,0009.04,0006.02,0005.72
2023-12-12 16:12:00,SystemResetWarning,0833.8,4.99,000.00,020.5,019.5,000.0,028.8,021.8,19.6,0000.0,0009.10,0006.07,0005.77
2023-12-12 16:13:00,SystemResetWarning,0833.8,4.99,000.00,020.5,019.5,000.0,028.8,021.8,19.6,0000.0,0009.10,0006.12,0005.82
2023-12-12 16:14:00,SystemResetWarning,0833.8,5.00,000.00,020.5,019.5,000.0,028.8,021.8,19.6,0000.0,0009.06,0006.15,0005.84
2023-12-12 16:15:00,SystemResetWarning,0833.8,5.01,000.00,020.5,019.5,000.0,028.8,021.8,19.6,0000.0,0008.95,0006.13,0005.85
2023-12-12 16:16:00,SystemResetWarning,0833.8,5.00,000.00,020.5,019.5,000.0,028.8,021.8,19.6,0000.0,0008.93,0006.13,0005.86
2023-12-12 16:17:00,SystemResetWarning,0833.8,5.00,000.00,020.5,019.5,000.0,028.8,021.8,19.6,0000.0,0008.98,0006.15,0005.88
2023-12-12 16:18:00,SystemResetWarning,0833.8,5.00,000.00,020.5,019.5,000.0,028.8,021.8,19.5,0000.0,0008.99,0006.17,0005.90
2023-12-12 16:19:00,SystemResetWarning,0833.8,5.00,000.00,020.5,019.5,000.0,028.8,021.8,19.5,0000.0,0008.95,0006.16,0005.90
2023-12-12 16:20:00,SystemResetWarning,0833.9,4.99,000.00,020.5,019.5,000.0,028.8,021.8,19.4,0000.0,0008.89,0006.15,0005.90
2023-12-12 16:21:00,SystemResetWarning,0833.9,4.99,000.00,020.5,019.5,000.0,028.8,021.8,19.4,0000.0,0008.55,0006.16,0005.92
2023-12-12 16:22:00,SystemResetWarning,0833.9,5.01,000.00,020.5,019.5,000.0,028.8,021.7,19.4,0000.0,0008.52,0006.16,0005.92
2023-12-12 16:23:00,SystemResetWarning,0833.9,5.01,000.00,020.5,019.5,000.0,028.8,021.7,19.4,0000.0,0008.56,0006.17,0005.92
2023-12-12 16:24:00,SystemResetWarning,0833.8,5.01,000.00,020.5,019.5,000.0,028.8,021.7,19.4,0000.0,0008.64,0006.21,0005.93
2023-12-12 16:25:00,SystemResetWarning,0833.9,5.00,000.00,020.5,019.5,000.0,028.8,021.7,19.4,0000.0,0008.69,0006.24,0005.97
2023-12-12 16:26:00,SystemResetWarning,0833.9,4.99,000.00,020.4,019.5,000.0,028.8,021.7,19.4,0000.0,0008.73,0006.29,0006.03
2023-12-12 16:27:00,SystemResetWarning,0833.9,5.00,000.00,020.4,019.5,000.0,028.8,021.7,19.4,0000.0,0008.88,0006.37,0006.09
2023-12-12 16:28:00,SystemResetWarning,0833.8,5.00,000.00,020.4,019.5,000.0,028.8,021.7,19.4,0000.0,0009.06,0006.45,0006.17
2023-12-12 16:29:00,SystemResetWarning,0833.8,5.00,000.00,020.4,019.5,000.0,028.8,021.7,19.4,0000.0,0009.24,0006.53,0006.24
2023-12-12 16:30:00,SystemResetWarning,0833.8,4.99,000.00,020.4,019.5,000.0,028.8,021.7,19.4,0000.0,0009.40,0006.63,0006.32
2023-12-12 16:31:00,SystemResetWarning,0833.9,5.00,000.00,020.4,019.5,000.0,028.8,021.7,19.3,0000.0,0009.45,0006.68,0006.37
2023-12-12 16:32:00,SystemResetWarning,0833.8,5.01,000.00,020.4,019.5,000.0,028.8,021.7,19.4,0000.0,0009.44,0006.73,0006.44
2023-12-12 16:33:00,SystemResetWarning,0833.8,5.01,000.00,020.4,019.4,000.0,028.8,021.7,19.3,0000.0,0009.50,0006.80,0006.50
2023-12-12 16:34:00,SystemResetWarning,0833.9,5.01,000.00,020.4,019.4,000.0,028.8,021.7,19.4,0000.0,0009.49,0006.84,0006.55
2023-12-12 16:35:00,SystemResetWarning,0833.8,5.00,000.00,020.4,019.5,000.0,028.7,021.7,19.4,0000.0,0009.49,0006.86,0006.59
2023-12-12 16:36:00,SystemResetWarning,0833.8,5.00,000.00,020.4,019.4,000.0,028.7,021.7,19.4,0000.0,0009.40,0006.87,0006.61
2023-12-12 16:37:00,SystemResetWarning,0833.8,5.00,000.00,020.4,019.4,000.0,028.7,021.7,19.4,0000.0,0009.48,0006.89,0006.61
2023-12-12 16:38:00,SystemResetWarning,0833.8,5.00,000.00,020.4,019.4,000.0,028.7,021.7,19.4,0001.4,0009.50,0006.92,0006.62
2023-12-12 16:39:00,SystemResetWarning,0833.8,5.00,000.00,020.4,019.4,000.0,028.7,021.6,19.4,0002.2,0009.35,0006.94,0006.62
2023-12-12 16:40:00,SystemResetWarning,0833.8,4.99,000.00,020.4,019.4,000.0,028.7,021.6,19.4,0002.5,0009.33,0006.95,0006.61
2023-12-12 16:41:00,SystemResetWarning,0833.9,5.00,000.00,020.4,019.4,000.0,028.7,021.6,19.4,0002.0,0009.16,0006.90,0006.59
2023-12-12 16:42:00,SystemResetWarning,0833.8,4.99,000.00,020.4,019.4,000.0,028.7,021.6,19.3,0001.8,0009.15,0006.89,0006.58
2023-12-12 16:43:00,SystemResetWarning,0833.9,5.00,000.00,020.4,019.4,000.0,028.7,021.6,19.3,0001.7,0009.29,0006.89,0006.54
2023-12-12 16:44:00,SystemResetWarning,0833.9,5.00,000.00,020.4,019.4,000.0,028.7,021.6,19.4,0002.2,0009.34,0006.86,0006.50
2023-12-12 16:45:00,SystemResetWarning,0834.0,5.01,000.00,020.4,019.4,000.0,028.7,021.6,19.4,0001.9,0009.28,0006.82,0006.48
2023-12-12 16:46:00,SystemResetWarning,0833.9,5.00,000.00,020.4,019.4,000.0,028.7,021.6,19.4,0000.0,0009.55,0006.82,0006.49
2023-12-12 16:47:00,SystemResetWarning,0833.9,5.00,000.00,020.4,019.4,000.0,028.7,021.6,19.3,0000.0,0009.62,0006.81,0006.48
2023-12-12 16:48:00,SystemResetWarning,0833.8,5.00,000.00,020.4,019.4,000.0,028.7,021.6,19.3,0000.0,0009.53,0006.76,0006.44
2023-12-12 16:49:00,SystemResetWarning,0833.9,5.01,000.00,020.4,019.4,000.0,028.7,021.6,19.3,0000.0,0009.52,0006.69,0006.39
2023-12-12 16:50:00,SystemResetWarning,0833.9,4.99,000.00,020.4,019.4,000.0,028.7,021.6,19.3,0000.0,0009.74,0006.62,0006.35
2023-12-12 16:51:00,SystemResetWarning,0833.9,4.99,000.00,020.4,019.4,000.0,028.7,021.6,19.3,0000.0,0009.67,0006.57,0006.32
2023-12-12 16:52:00,SystemResetWarning,0833.9,4.99,000.00,020.4,019.4,000.0,028.7,021.6,19.3,0000.0,0009.81,0006.59,0006.29
2023-12-12 16:53:00,SystemResetWarning,0833.9,5.01,000.00,020.3,019.4,000.0,028.7,021.6,19.3,0000.0,0009.79,0006.54,0006.24
2023-12-12 16:54:00,SystemResetWarning,0834.0,5.01,000.00,020.3,019.4,000.0,028.7,021.6,19.3,0000.0,0009.68,0006.47,0006.19
2023-12-12 16:55:00,SystemResetWarning,0833.8,5.01,000.00,020.3,019.4,000.0,028.7,021.6,19.4,0000.0,0009.53,0006.41,0006.14
2023-12-12 16:56:00,SystemResetWarning,0833.9,4.99,000.00,020.3,019.4,000.0,028.7,021.6,19.4,0000.0,0009.59,0006.42,0006.12
2023-12-12 16:57:00,SystemResetWarning,0833.9,4.99,000.00,020.3,019.4,000.0,028.7,021.6,19.4,0000.0,0009.44,0006.38,0006.07
2023-12-12 16:58:00,SystemResetWarning,0833.9,4.99,000.00,020.3,019.4,000.0,028.7,021.6,19.4,0000.0,0009.13,0006.31,0005.99
2023-12-12 16:59:00,SystemResetWarning,0833.9,5.00,000.00,020.3,019.4,000.0,028.7,021.6,19.4,0000.0,0009.06,0006.26,0005.95
